Regional Weather Roundup
Issued by NWS

Home | Current Version | Previous Version | Text Only | Print | Product List | Glossary Off
Versions: 1 2 3 4 5 6 7 8 9 10 11 12 13 14 15 16 17 18 19 20 21 22 23 24 25 26 27 28 29 30 31 32 33 34 35 36 37 38 39 40 41 42 43 44 45 46 47 48 49 50

000
ASUS43 KDTX 230101
RWRMI
MICHIGAN HOURLY REGIONAL WEATHER ROUNDUP
NATIONAL WEATHER SERVICE DETROIT/PONTIAC MI
900 PM EDT TUE APR 22 2014

NOTE: "FAIR" INDICATES FEW OR NO CLOUDS BELOW 12,000 FEET WITH NO
SIGNIFICANT WEATHER AND/OR OBSTRUCTION TO VISIBILITY.

MIZ047>049-052>055-059>063-066>070-074>076-081>083-230200-
SOUTHEAST LOWER MICHIGAN

CITY           SKY/WX    TMP DP  RH WIND       PRES   REMARKS
ADRIAN         CLOUDY    45  30  55 NW14      29.92R
ALMA           CLEAR     40  26  58 NW13G18   29.94R WCI  32
ANN ARBOR      MOCLDY    45  28  51 NW17      29.90R
BAD AXE        CLOUDY    39  32  76 NW17      29.87R WCI  30
CARO           CLOUDY    41  34  75 NW15G26   29.90R
DETROIT CITY   CLOUDY    47  30  51 NW17G23   29.88R
DETROIT        CLOUDY    46  30  53 W20G35    29.89R
FLINT          CLOUDY    43  29  57 NW18G30   29.91R
GROSSE ILE     MOCLDY    46  32  57 NW21G29   29.87R
HILLSDALE      CLOUDY    44  28  53 N15       29.92R
HOWELL         MOCLDY    42  28  58 NW10G29   29.90R

CITY           SKY/WX    TMP DP  RH WIND       PRES   REMARKS
JACKSON        CLOUDY    43  29  57 NW13G24   29.92R
LAMBERTVILLE   CLOUDY    46  32  57 NW12G23   29.91R
LANSING        PTCLDY    42  27  55 NW12      29.94R
LAPEER         DRIZZLE   39  32  76 N18G25    29.89R WCI  30
MASON          MOCLDY    43  29  58 NW14G22   29.92R
MONROE         CLOUDY    46  30  53 NW20      29.89R
MT. CLEMENS    CLOUDY    43  32  65 NW17      29.86R
PONTIAC        CLOUDY    41  30  65 NW17G25   29.88R
PORT HOPE        N/A     40  33  76 NW14G22   29.84R WCI  32
PORT HURON     DRIZZLE   39  36  87 NW13      29.87R WCI  32
TRI CITIES     CLOUDY    41  29  62 NW20      29.92R
TROY           CLOUDY    44  31  60 NW15G21   29.89R
SAGINAW HB     CLOUDY    41  30  65 NW20G25   29.92R
YPSILANTI      CLOUDY    48  30  49 NW17G25   29.89R
$$
MIZ043>046-050>051-056>058-064>065-071>073-077>080-230200-
SOUTHWEST LOWER MICHIGAN

CITY           SKY/WX    TMP DP  RH WIND       PRES   REMARKS
BATTLE CREEK   MOCLDY    45  27  49 N10       29.95R
BENTON HARBOR  CLEAR     39  30  70 N9        30.01R WCI  33
BIG RAPIDS     MOCLDY    39  27  63 N9        29.97R WCI  32
COLDWATER      CLEAR     42  28  58 NW8       29.94R
FREMONT        FAIR      39  26  59 NW12      29.98R WCI  32
HOLLAND        CLEAR     45  26  47 N9G16     30.00R
GRAND RAPIDS   MOCLDY    44  27  51 NW18      29.97R
IONIA          CLOUDY    43  28  55 NW10      29.94R
KALAMAZOO      CLEAR     44  26  49 N20G26    29.96R
LUDINGTON      CLEAR     37  28  72 N12G21    30.03R WCI  29
MARSHALL       CLOUDY    44  28  54 NW8G20    29.93R
MOUNT PLEASANT PTCLDY    39  28  64 NW16G23   29.94R WCI  30
MUSKEGON       PTCLDY    42  26  53 N12       30.01R
SOUTH HAVEN    CLEAR     40  29  65 N7        30.00R
$$
MIZ016>042-230200-
NORTHERN LOWER MICHIGAN

CITY           SKY/WX    TMP DP  RH WIND       PRES   REMARKS
ALPENA         CLOUDY    37  30  75 NW15G24   29.89R WCI  28
BEAVER ISLAND  CLOUDY    34  29  83 NW8       30.00R WCI  27
BELLAIRE       CLOUDY    36  28  75 NW7       29.99R WCI  30
CADILLAC       CLOUDY    34  27  76 NW18G26   29.96R WCI  23
CHARLEVOIX     CLOUDY    35  30  83 NW9       30.02R WCI  27
FRANKFORT      CLOUDY    36  28  71 N13G25    30.03R WCI  27
GAYLORD        CLOUDY    32  27  81 NW8       29.93R WCI  25
GRAYLING       CLOUDY    34  30  86 NW10      29.95R WCI  26
HARBOR SPRINGS CLOUDY    36  29  76 NW6       29.96R WCI  31
HOUGHTON LAKE  CLOUDY    34  28  79 NW13G25   29.94R WCI  25
MANISTEE       PTCLDY    37  25  60 N15G23    30.03R WCI  28
OSCODA         CLOUDY    39  31  72 NW21G32   29.87R WCI  29
PELLSTON       CLOUDY    35  27  72 NW9G20    29.96R WCI  28
ROGERS CITY    CLOUDY    36  32  86 NW14G24   29.92R WCI  27
TRAVERSE CITY  CLOUDY    36  27  69 N14       30.01R WCI  27
$$
MIZ007>008-015-230200-
EASTERN UPPER MICHIGAN

CITY           SKY/WX    TMP DP  RH WIND       PRES   REMARKS
KINROSS        CLOUDY    36  30  80 NW16G23   29.92S WCI  26
MACKINAC ISLAN CLOUDY    35  28  77 N14G25    29.93S WCI  26
NEWBERRY       CLOUDY    33  28  83 NW9G16    29.99R WCI  25
S. S. MARIE    CLOUDY    37  28  70 NW9G21    29.93R WCI  30
MUNISING         N/A     35  28  75 NW14      30.05R WCI  26
$$
MIZ004>006-011>014-085-230200-
CENTRAL UPPER MICHIGAN

CITY           SKY/WX    TMP DP  RH WIND       PRES   REMARKS
MANISTIQUE     PTCLDY    33  27  78 NW13      30.01S WCI  24
ESCANABA       CLOUDY    37  23  56 N9G22     30.06R WCI  31
MENOMINEE      CLOUDY    41  27  56 N10G17    30.05R
SAWYER-GWINN   PTCLDY    32  25  74 N12       30.05R WCI  23
$$
MIZ001>003-009>011-084-230200-
WESTERN UPPER MICHIGAN

CITY           SKY/WX    TMP DP  RH WIND       PRES   REMARKS
IRON MOUNTAIN  CLEAR     36  24  62 N8        30.04S WCI  30
HOUGHTON       CLEAR     34  24  67 N3        30.06F
COPPER HARBOR    N/A     35  26  69 N6        30.08R WCI  30
IRONWOOD       CLEAR     43  21  42 CALM      30.03F
$$

ABBREVIATIONS USED IN REMARKS
   TC - TEMPERATURE IN CELSIUS
  WCI - WIND CHILL INDEX
   HX - HEAT INDEX
  VSB - VISIBILITY




USA.gov is the U.S. government's official web portal to all federal, state and local government web resources and services.